Hays, KS

7:19 PM CDT on September 15, 2019 (GMT -0500)
Hays Regional

Weather History for KHYS - August, 2019

Change the Weather History Date:

Sunday, August 25, 2019

  Actual Average Record
Temperature  
Mean Temperature 72 °F -  
Max Temperature 84 °F 87 °F 100 °F (1999)
Min Temperature 60 °F 62 °F 51 °F (2010)
Cooling Degree Days 7    
Growing Degree Days 22 (Base 50)    
Moisture  
Dew Point 65 °F    
Average Humidity 86    
Maximum Humidity 100    
Minimum Humidity 59    
Precipitation  
Precipitation 0.13 in - - ()
Sea Level Pressure  
Sea Level Pressure 29.66 in    
Wind  
Wind Speed 10 mph (SSE)    
Max Wind Speed 17 mph    
Max Gust Speed 22 mph    
Visibility 9 miles    
Events Thunderstorm    
Averages and records for this station are not official NWS values.
T = Trace of Precipitation, MM = Missing Value Source: NWS Daily Summary

Daily Weather History Graph

Daily Weather History Graph

Search for Another Location

Airport or City:

Astronomy

Aug. 25, 2019 Rise Set
Actual Time 6:59 AM CDT 8:18 PM CDT
Civil Twilight 6:31 AM CDT 8:45 PM CDT
Nautical Twilight 5:58 AM CDT 9:18 PM CDT
Astronomical Twilight 5:23 AM CDT 9:53 PM CDT
Moon 1:37 AM CDT (8/25) 4:38 PM CDT (8/25)
Length of Visible Light 14h 13m
Length of Day
13h 18m
Waning Crescent, 29% of the Moon is Illuminated
Aug 25
Waning Crescent
Aug 30
New
Sep 5
First Quarter
Sep 13
Full
Sep 21
Last Quarter

Hourly Weather History & Observations

Time (CDT) Temp. Heat Index Dew Point Humidity Pressure Visibility Wind Dir Wind Speed Gust Speed Precip Events Conditions
12:03 AM 60.8 °F - 59.0 °F 94% 29.66 in 2.0 mi North 16.1 mph - 0.03 in Thunderstorm Overcast
12:56 AM 63.0 °F - 59.0 °F 87% 29.61 in 10.0 mi NE 9.2 mph 17.3 mph 0.08 in Thunderstorm Overcast
1:56 AM 61.0 °F - 60.1 °F 97% 29.66 in 7.0 mi NNW 17.3 mph - 0.04 in Thunderstorm Thunderstorm
2:07 AM 60.8 °F - 60.8 °F 100% 29.66 in 1.8 mi East 6.9 mph - 0.08 in Thunderstorm Overcast
2:28 AM 60.8 °F - 60.8 °F 100% 29.65 in 3.0 mi SSE 5.8 mph - 0.23 in Thunderstorm Overcast
2:37 AM 60.8 °F - 60.8 °F 100% 29.67 in 9.0 mi SSW 5.8 mph - 0.24 in Thunderstorm Mostly Cloudy
3:10 AM 60.8 °F - 60.8 °F 100% 29.64 in 10.0 mi ENE 6.9 mph - N/A   Mostly Cloudy
3:56 AM 62.1 °F - 61.0 °F 96% 29.60 in 10.0 mi ESE 5.8 mph - N/A   Mostly Cloudy
4:12 AM 62.6 °F - 60.8 °F 94% 29.63 in 10.0 mi NNE 3.5 mph - N/A Thunderstorm Overcast
4:36 AM 62.6 °F - 60.8 °F 94% 29.64 in 9.0 mi South 4.6 mph - 0.01 in   Overcast
4:56 AM 62.1 °F - 62.1 °F 100% 29.61 in 10.0 mi SSE 6.9 mph - 0.01 in Thunderstorm Overcast
5:56 AM 63.0 °F - 62.1 °F 97% 29.62 in 10.0 mi ESE 8.1 mph - N/A Thunderstorm Overcast
6:04 AM 62.6 °F - 62.6 °F 100% 29.66 in 10.0 mi SE 5.8 mph - N/A   Overcast
6:56 AM 63.0 °F - 62.1 °F 97% 29.62 in 10.0 mi SE 4.6 mph - N/A   Overcast
8:56 AM 64.9 °F - 63.0 °F 93% 29.67 in 10.0 mi SE 4.6 mph - N/A   Overcast
9:56 AM 66.0 °F - 64.0 °F 93% 29.71 in 10.0 mi SSE 3.5 mph - N/A   Overcast
10:56 AM 66.9 °F - 64.9 °F 93% 29.73 in 10.0 mi South 6.9 mph - N/A   Overcast
11:04 AM 66.2 °F - 64.4 °F 94% 29.77 in 10.0 mi South 5.8 mph - N/A   Overcast
11:56 AM 70.0 °F - 64.9 °F 84% 29.74 in 10.0 mi South 9.2 mph - N/A   Overcast
12:18 PM 71.6 °F - 66.2 °F 83% 29.76 in 10.0 mi South 11.5 mph - N/A   Overcast
12:56 PM 73.9 °F - 66.9 °F 79% 29.72 in 10.0 mi South 10.4 mph - N/A   Overcast
1:32 PM 77.0 °F - 68.0 °F 74% 29.74 in 10.0 mi South 16.1 mph - N/A   Mostly Cloudy
1:56 PM 77.0 °F - 68.0 °F 74% 29.70 in 10.0 mi SSW 16.1 mph 21.9 mph N/A   Scattered Clouds
2:56 PM 80.1 °F 82.9 °F 69.1 °F 69% 29.69 in 10.0 mi South 13.8 mph - N/A   Scattered Clouds
3:08 PM 80.6 °F 83.9 °F 69.8 °F 70% 29.73 in 10.0 mi SSW 13.8 mph - N/A   Mostly Cloudy
3:56 PM 84.0 °F 88.4 °F 70.0 °F 63% 29.69 in 10.0 mi SW 10.4 mph - N/A   Partly Cloudy
4:56 PM 84.0 °F 87.8 °F 69.1 °F 61% 29.70 in 10.0 mi SSW 9.2 mph - N/A   Mostly Cloudy
5:56 PM 84.9 °F 88.8 °F 69.1 °F 59% 29.70 in 10.0 mi South 9.2 mph - N/A   Scattered Clouds
6:56 PM 82.9 °F 87.0 °F 70.0 °F 65% 29.63 in 10.0 mi SSE 12.7 mph - N/A   Scattered Clouds
7:56 PM 79.0 °F - 70.0 °F 74% 29.60 in 10.0 mi ESE 9.2 mph - N/A   Clear
8:56 PM 75.0 °F - 70.0 °F 84% 29.58 in 10.0 mi ESE 10.4 mph - N/A   Clear
9:56 PM 73.9 °F - 69.1 °F 85% 29.58 in 10.0 mi SE 11.5 mph - N/A   Clear
10:56 PM 72.0 °F - 68.0 °F 87% 29.58 in 10.0 mi SE 10.4 mph - N/A   Clear
11:56 PM 71.1 °F - 69.1 °F 93% 29.57 in 10.0 mi SE 15.0 mph - N/A   Clear